TimeCST,TemperatureF,Dew PointF,Humidity,Sea Level PressureIn,VisibilityMPH,Wind Direction,Wind SpeedMPH,Gust SpeedMPH,PrecipitationIn,Events,Conditions,WindDirDegrees,DateUTC
12:53 AM,23.0,17.1,78,29.68,10.0,South,12.7,-,N/A,,Clear,190,2012-03-02 06:53:00
1:53 AM,23.0,16.0,74,29.68,10.0,SSW,10.4,-,N/A,,Mostly Cloudy,210,2012-03-02 07:53:00
2:53 AM,24.1,17.1,75,29.67,10.0,SSW,5.8,-,N/A,,Overcast,200,2012-03-02 08:53:00
3:53 AM,21.0,15.1,78,29.67,10.0,SSW,9.2,-,N/A,,Scattered Clouds,200,2012-03-02 09:53:00
4:53 AM,24.1,16.0,71,29.66,10.0,SW,11.5,-,N/A,,Overcast,230,2012-03-02 10:53:00
5:53 AM,23.0,16.0,74,29.65,10.0,SW,11.5,-,N/A,,Overcast,230,2012-03-02 11:53:00
6:53 AM,23.0,15.1,72,29.63,10.0,SW,12.7,-,N/A,,Overcast,230,2012-03-02 12:53:00
7:53 AM,24.1,16.0,71,29.62,10.0,SW,12.7,-,N/A,,Overcast,230,2012-03-02 13:53:00
8:53 AM,24.1,16.0,71,29.62,10.0,WSW,15.0,-,N/A,,Overcast,250,2012-03-02 14:53:00
9:53 AM,25.0,18.0,75,29.61,5.0,SW,15.0,-,0.00,Snow,Light Snow,230,2012-03-02 15:53:00
10:45 AM,26.6,19.4,74,29.56,6.0,WSW,13.8,-,0.00,,Haze,240,2012-03-02 16:45:00
10:53 AM,27.0,19.0,72,29.60,7.0,SW,11.5,-,0.00,,Mostly Cloudy,230,2012-03-02 16:53:00
11:07 AM,26.6,19.4,74,29.56,7.0,WSW,10.4,-,N/A,,Scattered Clouds,240,2012-03-02 17:07:00
11:32 AM,26.6,19.4,74,29.56,8.0,SW,8.1,-,N/A,,Overcast,220,2012-03-02 17:32:00
11:53 AM,28.0,21.0,75,29.60,8.0,SW,6.9,-,N/A,,Overcast,220,2012-03-02 17:53:00
12:38 PM,28.4,21.2,74,29.55,3.0,WNW,5.8,-,0.00,Snow,Light Snow,290,2012-03-02 18:38:00
12:53 PM,30.0,21.9,72,29.60,2.5,WNW,6.9,-,0.00,Snow,Light Snow,290,2012-03-02 18:53:00
1:06 PM,30.2,21.2,69,29.56,4.0,WNW,6.9,-,0.00,Snow,Light Snow,290,2012-03-02 19:06:00
1:20 PM,28.4,23.0,80,29.56,2.0,NW,8.1,-,0.00,Snow,Light Snow,310,2012-03-02 19:20:00
1:30 PM,28.4,21.2,74,29.56,1.8,WNW,9.2,-,0.00,Snow,Light Snow,300,2012-03-02 19:30:00
1:39 PM,28.4,23.0,80,29.55,2.0,NW,10.4,-,0.00,Snow,Light Snow,310,2012-03-02 19:39:00
1:53 PM,28.9,23.0,78,29.60,2.0,NW,10.4,-,0.00,Snow,Light Snow,320,2012-03-02 19:53:00
2:19 PM,28.4,21.2,74,29.56,2.5,NW,10.4,-,0.00,Snow,Light Snow,320,2012-03-02 20:19:00
2:28 PM,28.4,21.2,74,29.56,2.5,NNW,13.8,-,0.00,Snow,Light Snow,330,2012-03-02 20:28:00
2:50 PM,28.4,23.0,80,29.57,1.8,NW,12.7,-,0.00,Snow,Light Snow,320,2012-03-02 20:50:00
2:53 PM,28.9,21.9,75,29.61,2.0,NW,11.5,-,0.00,Snow,Light Snow,320,2012-03-02 20:53:00
3:09 PM,28.4,23.0,80,29.57,5.0,NNW,10.4,-,0.00,Snow,Light Snow,330,2012-03-02 21:09:00
3:21 PM,28.4,23.0,80,29.57,2.0,NW,11.5,-,0.00,Snow,Light Snow,320,2012-03-02 21:21:00
3:33 PM,28.4,23.0,80,29.58,4.0,NW,11.5,-,0.00,Snow,Light Snow,320,2012-03-02 21:33:00
3:48 PM,28.4,23.0,80,29.58,2.5,NNW,10.4,-,0.00,Snow,Light Snow,330,2012-03-02 21:48:00
3:53 PM,28.9,24.1,82,29.63,2.0,NW,11.5,-,0.00,Snow,Light Snow,320,2012-03-02 21:53:00
4:01 PM,28.4,24.8,86,29.59,1.5,NW,13.8,-,0.00,Snow,Light Snow,320,2012-03-02 22:01:00
4:10 PM,28.4,24.8,86,29.59,2.0,NW,15.0,-,0.00,Snow,Light Snow,320,2012-03-02 22:10:00
4:19 PM,28.4,24.8,86,29.59,1.2,NW,18.4,-,0.00,Snow,Light Snow,320,2012-03-02 22:19:00
4:42 PM,28.4,23.0,80,29.61,1.2,NNW,20.7,28.8,0.00,Snow,Light Snow,330,2012-03-02 22:42:00
4:53 PM,28.0,23.0,81,29.66,1.5,NW,24.2,-,0.00,Snow,Light Snow,320,2012-03-02 22:53:00
5:01 PM,26.6,21.2,80,29.62,2.5,NNW,27.6,33.4,0.00,Snow,Light Snow,330,2012-03-02 23:01:00
5:06 PM,26.6,21.2,80,29.63,2.5,NW,29.9,33.4,0.00,Snow,Light Snow,320,2012-03-02 23:06:00
5:20 PM,26.6,19.4,74,29.63,1.2,NNW,26.5,31.1,0.00,Snow,Light Snow,330,2012-03-02 23:20:00
5:34 PM,24.8,19.4,80,29.64,0.8,NW,27.6,34.5,0.00,Snow,Light Snow,320,2012-03-02 23:34:00
5:53 PM,23.0,19.0,85,29.70,0.5,NNW,26.5,34.5,0.00,Fog-Snow,Snow,330,2012-03-02 23:53:00
6:11 PM,23.0,17.6,80,29.66,1.0,NW,24.2,28.8,0.00,Snow,Light Snow,320,2012-03-03 00:11:00
6:53 PM,21.9,16.0,78,29.73,1.5,NNW,24.2,34.5,0.00,Snow,Light Snow,330,2012-03-03 00:53:00
7:01 PM,21.2,15.8,80,29.68,3.0,NNW,21.9,-,0.00,Snow,Light Snow,330,2012-03-03 01:01:00
7:11 PM,21.2,15.8,80,29.69,2.0,NNW,27.6,33.4,0.00,Snow,Light Snow,330,2012-03-03 01:11:00
7:19 PM,21.2,15.8,80,29.69,1.2,NNW,26.5,-,0.00,Snow,Light Snow,340,2012-03-03 01:19:00
7:53 PM,21.0,16.0,81,29.74,1.0,NNW,31.1,38.0,0.00,Snow,Light Snow,330,2012-03-03 01:53:00
8:02 PM,19.4,15.8,86,29.70,0.8,NNW,24.2,36.8,0.00,Snow,Light Snow,340,2012-03-03 02:02:00
8:10 PM,19.4,15.8,86,29.70,1.2,NNW,19.6,-,0.00,Snow,Light Snow,340,2012-03-03 02:10:00
8:18 PM,19.4,15.8,86,29.70,0.8,NNW,26.5,32.2,0.00,Snow,Light Snow,340,2012-03-03 02:18:00
8:50 PM,19.4,12.2,74,29.71,1.5,NNW,24.2,-,0.00,Snow,Light Snow,340,2012-03-03 02:50:00
8:53 PM,19.0,12.9,77,29.76,2.0,NNW,21.9,32.2,0.00,Snow,Light Snow,340,2012-03-03 02:53:00
9:19 PM,19.4,14.0,80,29.72,1.0,NNW,24.2,29.9,0.00,Snow,Light Snow,340,2012-03-03 03:19:00
9:53 PM,19.0,14.0,81,29.77,1.0,NNW,24.2,29.9,0.00,Snow,Light Snow,340,2012-03-03 03:53:00
10:08 PM,17.6,12.2,79,29.73,2.5,NNW,20.7,29.9,0.00,Snow,Light Snow,330,2012-03-03 04:08:00
10:21 PM,17.6,12.2,79,29.73,1.8,NNW,24.2,31.1,0.00,Snow,Light Snow,330,2012-03-03 04:21:00
10:34 PM,17.6,12.2,79,29.73,3.0,NNW,17.3,-,0.00,Snow,Light Snow,330,2012-03-03 04:34:00
10:42 PM,17.6,12.2,79,29.73,2.0,NNW,18.4,-,0.00,Snow,Light Snow,340,2012-03-03 04:42:00
10:53 PM,18.0,12.9,81,29.78,2.0,NNW,20.7,-,0.00,Snow,Light Snow,330,2012-03-03 04:53:00
11:01 PM,17.6,12.2,79,29.74,1.2,NNW,23.0,28.8,0.00,Snow,Light Snow,330,2012-03-03 05:01:00
11:51 PM,17.6,12.2,79,29.74,2.5,NNW,21.9,-,0.00,Snow,Light Snow,330,2012-03-03 05:51:00
11:53 PM,18.0,12.0,78,29.79,2.0,NW,18.4,-,0.00,Snow,Light Snow,320,2012-03-03 05:53:00